Weather History for Worcester, MA

Change the Weather History Date:

Saturday, August 31, 2013

  Actual Average Record
Temperature  
Mean Temperature 72 °F 66 °F  
Max Temperature 76 °F 75 °F 93 °F (1953)
Min Temperature 67 °F 58 °F 39 °F (1976)
Degree Days  
Heating Degree Days 0 2  
Month to date heating degree days 12 25  
Since 1 June heating degree days 86 122  
Since 1 July heating degree days 19 39  
Cooling Degree Days 7 3  
Month to date cooling degree days 106 145  
Year to date cooling degree days 531 426  
Since 1 June cooling degree days 507 404  
Growing Degree Days 20 (Base 50)    
Moisture  
Dew Point 69 °F    
Average Humidity 91    
Maximum Humidity 100    
Minimum Humidity 82    
Precipitation  
Precipitation T in 0.11 in 4.97 in (1954)
Month to date precipitation 3.18 3.71  
Year to date precipitation 33.02 31.36  
Snow  
Snow 0.00 in 0.00 in 0.00 in (2002)
Month to date snowfall 0.0 0.0  
Since 1 June snowfall 0.0 0.0  
Since 1 July snowfall 0.0 0.0  
Snow Depth -    
Sea Level Pressure  
Sea Level Pressure 29.85 in    
Wind  
Wind Speed 10 mph (SW)    
Max Wind Speed 16 mph    
Max Gust Speed 20 mph    
Visibility 5 miles    
Events Rain    
T = Trace of Precipitation, MM = Missing Value Source: NWS Daily Summary

Daily Weather History Graph

Daily Weather History Graph

Search for Another Location

Airport:

Trip Planner

Search our weather history database for the weather conditions in past years. The results will help you decide how hot, cold, wet, or windy it might be!

Date:

Astronomy

Aug. 31, 2013 Rise Set
Actual Time 6:11 AM EDT 7:22 PM EDT
Civil Twilight 5:43 AM EDT 7:51 PM EDT
Nautical Twilight 5:08 AM EDT 8:26 PM EDT
Astronomical Twilight 4:31 AM EDT 9:02 PM EDT
Moon 1:35 AM EDT (8/31) 4:21 PM EDT (8/31)
Length of Visible Light 14h 08m
Length of Day
13h 10m
Waning Crescent, 21% of the Moon is Illuminated
Aug 31
Waning Crescent
Sep 5
New
Sep 12
First Quarter
Sep 19
Full
Sep 26
Last Quarter

Hourly Weather History & Observations

Time (EDT) Temp. Dew Point Humidity Pressure Visibility Wind Dir Wind Speed Gust Speed Precip Events Conditions
12:54 AM 68.0 °F 64.9 °F 90% 29.86 in 10.0 mi WSW 11.5 mph - N/A   Clear
1:54 AM 66.9 °F 64.9 °F 93% 29.84 in 7.0 mi WSW 9.2 mph - N/A   Clear
2:54 AM 68.0 °F 66.0 °F 93% 29.84 in 6.0 mi WSW 13.8 mph - N/A   Scattered Clouds
3:54 AM 69.1 °F 66.9 °F 93% 29.83 in 5.0 mi WSW 12.7 mph - N/A   Partly Cloudy
4:34 AM 69.1 °F 68.0 °F 96% 29.84 in 4.0 mi WSW 13.8 mph - N/A   Scattered Clouds
4:54 AM 69.1 °F 68.0 °F 96% 29.83 in 4.0 mi WSW 17.3 mph - 0.00 in Rain Light Rain
5:46 AM 69.1 °F 68.0 °F 96% 29.85 in 4.0 mi WSW 9.2 mph - 0.00 in   Mostly Cloudy
5:54 AM 69.1 °F 68.0 °F 96% 29.84 in 4.0 mi WSW 10.4 mph - 0.00 in   Mostly Cloudy
6:15 AM 69.1 °F 68.0 °F 96% 29.85 in 4.0 mi WSW 9.2 mph - N/A   Overcast
6:31 AM 69.1 °F 68.0 °F 96% 29.86 in 1.0 mi WSW 10.4 mph - N/A   Overcast
6:38 AM 69.1 °F 68.0 °F 96% 29.86 in 1.0 mi WSW 10.4 mph - N/A   Overcast
6:54 AM 69.1 °F 68.0 °F 96% 29.84 in 1.0 mi SW 10.4 mph - N/A   Overcast
7:01 AM 69.1 °F 68.0 °F 96% 29.85 in 1.0 mi SW 9.2 mph - N/A   Overcast
7:04 AM 69.1 °F 68.0 °F 96% 29.86 in 1.0 mi WSW 9.2 mph - N/A   Overcast
7:54 AM 70.0 °F 69.1 °F 97% 29.85 in 1.0 mi WSW 8.1 mph - N/A   Overcast
8:01 AM 70.0 °F 69.1 °F 97% 29.87 in 1.0 mi WSW 10.4 mph - N/A   Overcast
8:16 AM 70.0 °F 69.1 °F 97% 29.86 in 1.0 mi SW 10.4 mph - N/A   Overcast
8:38 AM 70.0 °F 69.1 °F 97% 29.86 in 1.0 mi WSW 8.1 mph - N/A   Mostly Cloudy
8:54 AM 71.1 °F 69.1 °F 93% 29.86 in 2.5 mi SW 9.2 mph - N/A   Mostly Cloudy
9:54 AM 73.0 °F 69.1 °F 87% 29.87 in 3.0 mi SW 8.1 mph - 0.00 in   Mostly Cloudy
10:54 AM 73.9 °F 69.1 °F 85% 29.86 in 3.0 mi SW 9.2 mph - N/A   Overcast
11:01 AM 73.0 °F 69.1 °F 87% 29.87 in 3.0 mi SW 10.4 mph - N/A   Mostly Cloudy
11:10 AM 73.9 °F 69.1 °F 85% 29.87 in 7.0 mi SSW 9.2 mph - 0.00 in Rain Light Rain
11:29 AM 73.9 °F 69.1 °F 85% 29.87 in 8.0 mi SSW 11.5 mph - 0.00 in   Mostly Cloudy
11:54 AM 75.0 °F 69.1 °F 82% 29.85 in 9.0 mi SW 11.5 mph - 0.00 in Rain Light Rain
12:54 PM 75.0 °F 70.0 °F 84% 29.84 in 9.0 mi SSW 10.4 mph - 0.00 in   Mostly Cloudy
1:54 PM 75.0 °F 70.0 °F 84% 29.84 in 8.0 mi SSW 8.1 mph - N/A   Overcast
2:08 PM 75.0 °F 70.0 °F 84% 29.85 in 8.0 mi South 9.2 mph - N/A   Overcast
2:33 PM 75.0 °F 70.0 °F 84% 29.85 in 8.0 mi South 8.1 mph - N/A   Mostly Cloudy
2:54 PM 75.0 °F 70.0 °F 84% 29.83 in 8.0 mi SSW 10.4 mph - N/A   Overcast
3:01 PM 75.0 °F 70.0 °F 84% 29.85 in 8.0 mi SSW 10.4 mph - N/A   Overcast
3:26 PM 75.0 °F 70.0 °F 84% 29.85 in 8.0 mi SSW 9.2 mph - N/A   Overcast
3:54 PM 75.0 °F 70.0 °F 84% 29.83 in 8.0 mi SW 9.2 mph - N/A   Overcast
4:54 PM 73.9 °F 70.0 °F 87% 29.82 in 7.0 mi SSW 9.2 mph - N/A   Mostly Cloudy
5:54 PM 73.9 °F 70.0 °F 87% 29.83 in 7.0 mi SSW 8.1 mph - N/A   Overcast
6:16 PM 73.0 °F 70.0 °F 90% 29.84 in 6.0 mi SSW 9.2 mph - N/A   Overcast
6:54 PM 73.0 °F 70.0 °F 90% 29.83 in 6.0 mi SW 10.4 mph - N/A   Overcast
7:54 PM 73.0 °F 70.0 °F 90% 29.83 in 7.0 mi SSW 11.5 mph - N/A   Overcast
8:54 PM 72.0 °F 70.0 °F 93% 29.84 in 7.0 mi SW 13.8 mph - N/A   Mostly Cloudy
9:07 PM 72.0 °F 70.0 °F 93% 29.85 in 7.0 mi SW 11.5 mph - N/A   Mostly Cloudy
9:33 PM 72.0 °F 70.0 °F 93% 29.85 in 7.0 mi SW 11.5 mph - N/A   Overcast
9:54 PM 72.0 °F 70.0 °F 93% 29.84 in 7.0 mi SW 10.4 mph - N/A   Overcast
10:54 PM 72.0 °F 70.0 °F 93% 29.85 in 7.0 mi SW 11.5 mph - N/A   Overcast
11:54 PM 72.0 °F 70.0 °F 93% 29.85 in 7.0 mi SW 8.1 mph - N/A   Overcast